Current weather by "City, St" or "zip code"  
 
Advertise Here

Current Conditions: Air Force Academy, CO

Mostly Cloudy


45.0 F

Last Updated on May 12 2021, 11:58 am MDT
Humidity: 71%
Wind Speed: S 11.5 mph
Barometer 30.30 in
Dewpoint: 36.1 F
Visibility: 10.00 mi
Precip: --
Heat Index: NA
Wind Chill: 39 F
Current conditions at:

Air Force Academy, CO (KAFF)

Lat: 38.96667 Lon: 104.81667

Local Radar Image active severe weather and emergency alerts image image weather storm and storm spotter reports image weather observation monitoring service image
Local
Radar
Active
Alerts
Storm Reports Obs
Monitoring

Sign-up For Email & Text Message Weather Alert Notification Services


Advertise Here

Observation History for Air Force Academy, CO


Time Wind
(mph)
Vis
(mi)
Weather Precip (in) Temperature (F) Relative
Humidity
Wind
Chill
(F)
Heat
Index
(F)
Pressure
Air Dwpt altimeter
(in)
sea level
(mb)
Rmks
11:58 am MDT S 11.5 10.00 Mostly Cloudy -- 45.0 36.1 71% 39 NA 30.30 1026.0
10:58 am MDT S 9.2 10.00 Mostly Cloudy -- 43.0 35.4 74% 38 NA 30.30 1026.0
9:58 am MDT S 5.8 10.00 Overcast -- 39.0 35.8 88% 35 NA 30.30 1026.6
8:58 am MDT S 8.1 10.00 Overcast -- 37.0 36.1 98% 31 NA 30.31 1027.0
7:58 am MDT S 8.1 10.00 Overcast -- 36.0 36.1 99% 30 NA 30.31 1027.6
6:58 am MDT SE 8.1 10.00 Overcast -- 35.0 34.7 99% 28 NA 30.30 1026.6
5:58 am MDT SE 8.1 7.00 Light Drizzle -- 35.0 34.3 99% 28 NA 30.29 1026.9
4:58 am MDT S 11.5 7.00 Overcast -- 35.0 34.5 99% 27 NA 30.28 1026.5
2:58 am MDT S 11.5 6.00 Light Drizzle Fog/Mist -- 35.0 34.3 99% 27 NA 30.28 1027.2
1:58 am MDT S 15.0 6.00 Light Drizzle Fog/Mist -- 35.0 34.7 99% 25 NA 30.29 1026.9
12:58 am MDT S 15.0 6.00 Light Drizzle Fog/Mist -- 35.0 34.7 99% 25 NA 30.30 1027.2
11:58 pm MDT S 10.4 5.00 Light Drizzle Fog/Mist Trace 35.0 34.7 99% 27 NA 30.30 1027.2
10:58 pm MDT S 6.9 10.00 Overcast -- 35.0 35.1 99% 29 NA 30.31 1027.6
9:58 pm MDT S 10.4 10.00 Overcast -- 36.0 35.4 99% 28 NA 30.31 1028.2
8:58 pm MDT S 10.4 10.00 Overcast -- 36.0 35.8 99% 28 NA 30.29 1027.5
7:56 pm MDT S 10.4 10.00 Overcast -- 37.0 36.0 97% 30 NA 30.27 1026.2
6:58 pm MDT S 10.4 10.00 Overcast -- 38.0 34.9 89% 31 NA 30.25 1026.1
5:58 pm MDT SW 5.8 10.00 Mostly Cloudy -- 38.0 36.0 93% 34 NA 30.24 1025.7
4:58 pm MDT SW 4.6 10.00 Overcast -- 36.0 35.6 99% 32 NA 30.23 1025.4
3:58 pm MDT N 0.0 1.63 Light Snow Fog/Mist -- 33.0 32.9 99% NA NA 30.22 1025.6
2:58 pm MDT SE 4.6 3.00 Light Snow Fog/Mist -- 34.0 34.2 99% 30 NA 30.20 1024.3
1:58 pm MDT SE 15.0 10.00 Light Snow -- 36.0 36.1 99% 27 NA 30.17 1023.2
12:58 pm MDT SE 12.7 10.00 Light Snow -- 36.0 35.2 97% 28 NA 30.17 1023.2

Regional Weather Observation


Wilkerson Pass, CO (K4BM)

Fair
36.0 F

Denver - Centennial Airport, CO (KAPA)

A Few Clouds
54.0 F

Air Force Academy, CO (KAFF)

Mostly Cloudy
45.0 F

Buckley Air Force Base Airport, CO (KBKF)

A Few Clouds
51.0 F

Meadow Lake Airport, CO (KFLY)

Mostly Cloudy
44.0 F

Cheyenne Mountain, CO (KCWN)

Overcast
42.0 F
Advertise Here

Advertise Here